ギブス彗星

P/2011 S1 ( Gibbs )

English version
Home page
Updated on June 11, 2016

---------------------------------------------------------------------

・ プロフィール

発見日 2011年9月18日
発見光度 21.2等
発見者 A. R. Gibbs (Mt. Lemmon)

・ 写真集

・ 軌道要素

Epoch 2014 Aug. 11.0 TT = JDT 2456880.5
T 2014 Aug. 27.37321 TT                                 MPCW
q   6.8930793            (2000.0)            P               Q
n   0.03878089     Peri.  193.56509     +0.60945670     -0.79227539
a   8.6441884      Node   218.89633     +0.73169096     +0.57634118
e   0.2025765      Incl.    2.68037     +0.30527180     +0.20032611
P  25.4
From 136 observations 2010 Sept. 29-2016 Jan. 3, mean residual 0".4.

・ 光度変化

        m1 = 7.0 + 5 logΔ + 10.0 log r

---------------------------------------------------------------------

軌道要素はM.P.E.C. 2016-D32に掲載されたものです。
光度グラフはComet for Windowsで作成したものです。

---------------------------------------------------------------------

Copyright(C) Seiichi Yoshida (comet@aerith.net). All rights reserved.